Regional Weather Roundup
Issued by NWS

Home | Current Version | Previous Version | Text Only | Print | Product List | Glossary Off
Versions: 1 2 3 4 5 6 7 8 9 10 11 12 13 14 15 16 17 18 19 20 21 22 23 24 25 26 27 28 29 30 31 32 33 34 35 36 37 38 39 40 41 42 43 44 45 46 47 48 49 50

000
ASUS45 KBOU 060807
RWRCO

WEATHER ROUNDUP FOR COLORADO
NATIONAL WEATHER SERVICE DENVER/BOULDER CO
100 AM MST SAT FEB 06 2016

NOTE: "FAIR" INDICATES FEW OR NO CLOUDS BELOW 12000 FEET WITH NO
SIGNIFICANT WEATHER AND/OR OBSTRUCTIONS TO VISIBILITY.

COZ001>005-013-030-031-060900-
...NORTHWEST COLORADO...

CITY           SKY/WX    TMP DP  RH WIND       PRES   REMARKS
CRAIG          CLOUDY    -6 -10  83 W3        30.50R
HAYDEN         CLOUDY     7   1  78 SE10      30.46S WCI  -8
MEEKER         CLOUDY     0  -6  76 NE3       30.49S
MOUNT WERNER   NOT AVBL
STEAMBOAT SPGS CLOUDY     9   5  82 CALM      30.46S
WALDEN         CLOUDY     1  -4  78 SE12      30.39F WCI -15
$$

COZ006>008-011-060900-
...WEST CENTRAL VALLEYS...

CITY           SKY/WX    TMP DP  RH WIND       PRES   REMARKS
GRAND JUNCTION CLOUDY     6   5  95 E3        30.57F
MONTROSE       CLOUDY     8   1  73 SE8       30.58R WCI  -4
EAGLE          CLOUDY     3   1  92 CALM      30.56S
RIFLE          CLOUDY     3  -2  79 SE5       30.57S WCI  -6
DELTA          CLOUDY    15  10  81 E5        30.58S WCI   7
NUCLA          CLOUDY    12   5  73 E10       30.55F WCI  -1
$$

COZ017>023-064>068-060900-
...SOUTHWEST COLORADO...

CITY           SKY/WX    TMP DP  RH WIND       PRES   REMARKS
DURANGO        CLOUDY     6   1  80 NE3       30.44S
CORTEZ         CLOUDY     8   3  80 E14       30.48S WCI  -8
PAGOSA SPRINGS CLOUDY     2  -2  84 CALM      30.42S
TELLURIDE      CLOUDY    10   1  68 SE6       30.43S WCI   0
WOLF CREEK PAS CLOUDY    18  -4  38 NW7G18    30.38R WCI   8
$$

COZ009-010-012-014-032>034-037-058>063-060900-
...CENTRAL COLORADO...

CITY           SKY/WX    TMP DP  RH WIND       PRES   REMARKS
ASPEN          CLOUDY     0  -5  79 W3        30.44F
BUENA VISTA    CLOUDY     3  -5  68 W6        30.34F WCI  -8
COPPER MTN     NOT AVBL
BERTHOUD PASS  CLOUDY     0  -9  65 N15G30    30.28S WCI -20
COTTONWOOD PAS CLOUDY    21  -2  35 S3        30.30F
GUNNISON       CLOUDY   -15 -26  58 CALM      30.54R
KREMMLING      CLOUDY   N/A N/A N/A CALM      30.52S
LEADVILLE      CLOUDY     6  -3  66 NE10      30.35F WCI  -9
MONARCH PASS   CLOUDY     3  -2  78 MISG      30.39F
SALIDA         NOT AVBL
SUNLIGHT       CLOUDY    10   9  92 CALM        N/A
WILKERSON PASS CLOUDY    16   3  57 NW13G24   30.26F WCI   2
$$

COZ069>075-060900-
...SAN LUIS VALLEY/SANGRE DE CRISTO MOUNTAINS...

CITY           SKY/WX    TMP DP  RH WIND       PRES   REMARKS
ALAMOSA        CLOUDY    -3  -9  75 W8        30.41S WCI -18
LA VETA PASS   CLOUDY    10   0  61 MISG      30.27F
SAGUACHE       CLOUDY    14   3  62 NW5       30.40S WCI   6
$$

COZ035-036-038>040-060900-
...NORTHERN COLORADO FRONT RANGE...

CITY           SKY/WX    TMP DP  RH WIND       PRES   REMARKS
DENVER INTL AP CLOUDY    23   5  46 SW18      30.22F WCI   9
DMNS CITY PARK   N/A     25   6  44 SE8G14    30.23F WCI  16
AURORA         CLEAR     20   6  54 S12       30.23F WCI   8
FRONT RANGE AP NOT AVBL
ERIE MUNI ARPT CLOUDY     7   4  89 SW3       30.23F
BOULDER MUN AP CLOUDY    19  10  68 CALM      30.22F
CENTENNIAL     CLOUDY    22   3  44 SE3       30.23F
BROOMFIELD     CLOUDY    30   5  34 CALM      30.22F
FORT COLLINS   CLOUDY    16   9  73 CALM      30.24F
LONGMONT       CLOUDY    10   3  73 CALM      30.25F
$$

COZ041-046-047-076>085-087-088-060900-
...PIKES PEAK/PALMER DIVIDE AND SOUTHERN FOOTHILLS...

CITY           SKY/WX    TMP DP  RH WIND       PRES   REMARKS
COLO. SPRINGS  CLOUDY     9   1  70 N7        30.28F WCI  -2
A. F. ACADEMY  CLOUDY     1  -4  80 N7        30.25F WCI -12
SCHRIEVER AFB  FAIR      13   7  74 NW3       30.28F
ELLICOTT       NOT AVBL
FALCON         CLOUDY    12   5  71 CALM      30.26S
FORT CARSON    CLEAR     12   6  77 NW12      30.26F WCI  -2
LIMON          CLOUDY    -4  -8  83 N7        30.27F WCI -18
MONUMENT HILL  CLOUDY    21  -2  35 SW10      30.24F WCI  10
TRINIDAD       CLOUDY    18  10  71 W14       30.32S WCI   4
$$

COZ042>045-048>051-090-091-060900-
...NORTHEAST COLORADO...

CITY           SKY/WX    TMP DP  RH WIND       PRES   REMARKS
GREELEY ARPT   CLOUDY     3   0  85 CALM      30.26F
AKRON          CLOUDY    20   8  60 SW15      30.24F WCI   6
BURLINGTON     CLOUDY    11   3  70 W12       30.28F WCI  -3
WRAY           CLOUDY    14   9  79 SW6       30.29S WCI   5
STERLING       CLOUDY     9   5  85 S8        30.26F WCI  -4
HOLYOKE        CLOUDY    18  10  73 W13       30.26F WCI   4
FORT MORGAN    CLOUDY     7   2  77 W9        30.26F WCI  -6
$$

COZ086-089-092>099-060900-
...SOUTHEAST COLORADO...

CITY           SKY/WX    TMP DP  RH WIND       PRES   REMARKS
PUEBLO         CLEAR     12   7  80 CALM      30.32F
LA JUNTA       CLOUDY    18  11  74 VRB3      30.34F
LAMAR          CLEAR     18  14  84 SW8       30.33F WCI   8
SPRINGFIELD      N/A     19  13  77 W12       30.31F WCI   7
$$



USA.gov is the U.S. government's official web portal to all federal, state and local government web resources and services.